FW1762 Weather Reports


Display with metric or nautical units.
time (UTC)temp
F
wind
direction
speed
MPH
gust
MPH
rain 1hr
in
rain 24hr
in
rain mn
in
humidity
%
barometer
mb
20260507203038 53 132 0.0 0.0 0.00 0.00 0.00 78 1016.6
20260507202539 53 132 0.0 0.0 0.00 0.00 0.00 78 1016.6
20260507202112 54 148 0.0 0.0 0.00 0.00 0.00 77 1016.3
20260507201642 54 126 0.0 0.0 0.00 0.00 0.00 76 1016.3
20260507201236 54 125 0.0 0.0 0.00 0.00 0.00 76 1016.3
20260507200813 54 136 0.0 0.0 0.00 0.00 0.00 75 1016.3
20260507200042 54 213 0.0 0.0 0.00 0.00 0.00 75 1015.9
20260507195613 54 213 0.0 0.0 0.00 0.00 0.00 75 1015.9
20260507195140 54 213 0.0 0.0 0.00 0.00 0.00 74 1015.9
20260507194738 55 213 0.0 0.0 0.00 0.00 0.00 74 1015.9
20260507194310 55 213 0.0 0.0 0.00 0.00 0.00 74 1015.9
20260507193534 55 213 0.0 0.0 0.00 0.00 0.00 74 1015.9
20260507193040 55 213 0.0 0.0 0.00 0.00 0.00 74 1015.9
20260507192538 55 213 0.0 0.0 0.00 0.00 0.00 73 1015.6
20260507192042 55 213 0.0 0.0 0.00 0.00 0.00 73 1015.6
20260507191642 55 213 0.0 0.0 0.00 0.00 0.00 72 1015.6
20260507191215 55 213 0.0 0.0 0.00 0.00 0.00 71 1015.6
20260507190740 56 213 0.0 0.0 0.00 0.00 0.00 71 1015.6
20260507190312 56 213 0.0 0.0 0.00 0.00 0.00 71 1015.6
20260507185543 56 214 0.0 0.0 0.00 0.00 0.00 71 1015.6
20260507185040 56 177 0.0 0.0 0.00 0.00 0.00 70 1015.6
20260507184610 56 209 0.0 0.0 0.00 0.00 0.00 71 1015.6
20260507184141 56 195 0.0 0.0 0.00 0.00 0.00 70 1015.6
20260507183710 56 201 0.0 0.0 0.00 0.00 0.00 70 1015.6
20260507183241 56 193 0.0 0.0 0.00 0.00 0.00 70 1015.6
20260507182814 57 205 0.0 0.0 0.00 0.00 0.00 70 1015.6
20260507182042 57 188 0.0 0.0 0.00 0.00 0.00 70 1015.6
20260507181638 57 190 0.0 0.0 0.00 0.00 0.00 69 1015.6
20260507181211 57 174 0.0 0.0 0.00 0.00 0.00 69 1015.6
20260507180739 57 183 0.0 0.0 0.00 0.00 0.00 69 1015.6
20260507180312 57 200 0.0 0.0 0.00 0.00 0.00 68 1015.6
20260507175611 57 192 0.0 0.0 0.00 0.00 0.00 68 1015.2
20260507175144 57 178 0.0 0.0 0.00 0.00 0.00 68 1015.2
20260507174739 57 211 0.0 0.0 0.00 0.00 0.00 68 1015.2
20260507174314 58 185 0.0 0.0 0.00 0.00 0.00 68 1015.2
20260507173536 58 218 1.0 1.0 0.00 0.00 0.00 68 1015.2
20260507173040 58 162 1.0 1.0 0.00 0.00 0.00 67 1015.2
20260507172539 58 196 1.0 1.0 0.00 0.00 0.00 66 1015.2
20260507172125 58 198 0.0 0.0 0.00 0.00 0.00 65 1015.2
20260507171641 58 186 0.0 0.0 0.00 0.00 0.00 65 1015.2
20260507171225 59 119 0.0 0.0 0.00 0.00 0.00 65 1015.2
20260507170742 59 187 0.0 0.0 0.00 0.00 0.00 64 1015.2
20260507170327 59 108 0.0 0.0 0.00 0.00 0.00 63 1015.2
20260507165525 59 134 0.0 0.0 0.00 0.00 0.00 62 1015.2
20260507165023 59 196 0.0 0.0 0.00 0.00 0.00 61 1015.2
20260507164542 60 120 0.0 0.0 0.00 0.00 0.00 59 1015.2
20260507164125 60 132 0.0 0.0 0.00 0.00 0.00 59 1015.2
20260507163641 60 209 0.0 0.0 0.00 0.00 0.00 58 1015.2
20260507163225 60 213 0.0 1.0 0.00 0.00 0.00 58 1015.2
20260507162823 60 90 0.0 1.0 0.00 0.00 0.00 59 1015.2
20260507162039 60 200 0.0 1.0 0.00 0.00 0.00 58 1015.2
20260507161625 60 93 0.0 0.0 0.00 0.00 0.00 60 1015.2
20260507161142 60 207 0.0 0.0 0.00 0.00 0.00 60 1015.2
20260507160739 60 177 0.0 0.0 0.00 0.00 0.00 60 1015.2
20260507160322 59 44 0.0 0.0 0.00 0.00 0.00 59 1015.2
20260507155522 60 171 0.0 4.0 0.00 0.00 0.00 59 1015.2
20260507155021 60 227 0.0 0.0 0.00 0.00 0.00 58 1015.2
20260507154541 60 217 0.0 0.0 0.00 0.00 0.00 56 1015.2
20260507154037 61 197 0.0 0.0 0.00 0.00 0.00 55 1015.2
20260507153621 61 73 0.0 2.0 0.00 0.00 0.00 56 1015.2
20260507153144 61 207 0.0 2.0 0.00 0.00 0.00 54 1015.2
20260507152739 61 190 0.0 0.0 0.00 0.00 0.00 55 1015.2
20260507152322 61 209 0.0 0.0 0.00 0.00 0.00 53 1015.2
20260507151542 61 190 0.0 0.0 0.00 0.00 0.00 53 1015.6
20260507151137 61 177 0.0 0.0 0.00 0.00 0.00 52 1015.6
20260507150735 61 94 0.0 0.0 0.00 0.00 0.00 53 1015.6
20260507150320 60 152 0.0 0.0 0.00 0.00 0.00 51 1015.6
20260507145520 60 146 0.0 0.0 0.00 0.00 0.00 53 1015.6
20260507145041 61 157 0.0 0.0 0.00 0.00 0.00 50 1015.6
20260507144623 61 171 0.0 0.0 0.00 0.00 0.00 51 1015.6
20260507144144 61 217 0.0 0.0 0.00 0.00 0.00 50 1015.6
20260507143737 61 28 0.0 0.0 0.00 0.00 0.00 50 1015.6
20260507143320 62 138 0.0 0.0 0.00 0.00 0.00 51 1015.6
20260507142521 61 142 0.0 0.0 0.00 0.00 0.00 53 1015.6
20260507142020 61 184 0.0 0.0 0.00 0.00 0.00 52 1015.6
20260507141535 61 211 0.0 0.0 0.00 0.00 0.00 53 1015.6
20260507141043 61 118 0.0 0.0 0.00 0.00 0.00 52 1015.6
20260507140617 60 69 0.0 0.0 0.00 0.00 0.00 53 1015.6
20260507140140 60 174 0.0 0.0 0.00 0.00 0.00 52 1015.6
20260507135737 60 165 0.0 0.0 0.00 0.00 0.00 52 1015.6
20260507135316 60 217 0.0 0.0 0.00 0.00 0.00 51 1015.6
20260507134544 60 202 0.0 0.0 0.00 0.00 0.00 52 1015.6
20260507134042 60 165 0.0 0.0 0.00 0.00 0.00 54 1015.6
20260507133636 60 209 0.0 0.0 0.00 0.00 0.00 52 1015.6
20260507133219 60 202 0.0 0.0 0.00 0.00 0.00 51 1015.6
20260507132738 59 202 0.0 0.0 0.00 0.00 0.00 51 1015.9
20260507132316 59 203 0.0 0.0 0.00 0.00 0.00 51 1015.9
20260507131540 59 201 0.0 0.0 0.00 0.00 0.00 52 1015.9
20260507131041 60 202 0.0 0.0 0.00 0.00 0.00 51 1015.9
20260507130617 60 179 0.0 0.0 0.00 0.00 0.00 54 1015.9
20260507130136 60 221 0.0 0.0 0.00 0.00 0.00 52 1015.9
20260507125717 60 198 0.0 0.0 0.00 0.00 0.00 53 1015.9
20260507125240 60 120 0.0 0.0 0.00 0.00 0.00 54 1015.9
20260507124815 60 142 0.0 0.0 0.00 0.00 0.00 54 1015.9
20260507124035 60 121 0.0 0.0 0.00 0.00 0.00 54 1015.9
20260507123616 60 55 0.0 0.0 0.00 0.00 0.00 53 1015.9
20260507123141 60 103 0.0 0.0 0.00 0.00 0.00 53 1015.9
20260507122740 60 42 0.0 0.0 0.00 0.00 0.00 54 1015.9
20260507122313 59 30 0.0 0.0 0.00 0.00 0.00 54 1015.9
20260507121541 59 110 0.0 0.0 0.00 0.00 0.00 51 1015.9
20260507121039 59 101 0.0 0.0 0.00 0.00 0.00 52 1015.9
20260507120544 59 308 0.0 0.0 0.00 0.00 0.00 50 1015.9
20260507120139 59 340 0.0 0.0 0.00 0.00 0.00 52 1015.9
20260507115713 60 341 0.0 0.0 0.00 0.00 0.00 50 1015.9
20260507114644 60 310 0.0 0.0 0.00 0.00 0.00 50 1015.9
20260507114214 61 11 0.0 0.0 0.00 0.00 0.00 50 1015.9
20260507113811 61 36 0.0 0.0 0.00 0.00 0.00 48 1015.9
20260507113041 62 54 0.0 0.0 0.00 0.00 0.00 51 1015.9
20260507112637 62 106 0.0 0.0 0.00 0.00 0.00 50 1015.9
20260507112214 61 63 0.0 0.0 0.00 0.00 0.00 51 1015.9
20260507111813 60 104 0.0 0.0 0.00 0.00 0.00 54 1015.9
20260507111037 59 267 0.0 0.0 0.00 0.00 0.00 54 1016.3
20260507110542 58 169 0.0 0.0 0.00 0.00 0.00 56 1016.3
20260507110037 58 144 0.0 0.0 0.00 0.00 0.00 55 1016.3
20260507105612 58 88 0.0 0.0 0.00 0.00 0.00 59 1016.3
20260507105141 58 109 0.0 0.0 0.00 0.00 0.00 60 1016.3
20260507104738 58 153 0.0 0.0 0.00 0.00 0.00 57 1016.3
20260507104311 58 153 0.0 0.0 0.00 0.00 0.00 55 1016.3
20260507103542 58 138 0.0 0.0 0.00 0.00 0.00 57 1016.3
20260507103115 59 119 0.0 0.0 0.00 0.00 0.00 57 1016.3
20260507102643 59 186 0.0 0.0 0.00 0.00 0.00 57 1016.3
20260507102235 59 14 0.0 0.0 0.00 0.00 0.00 54 1016.3
20260507101811 60 55 0.0 0.0 0.00 0.00 0.00 55 1016.3
20260507101037 59 113 0.0 0.0 0.00 0.00 0.00 57 1016.3
20260507100614 58 75 0.0 0.0 0.00 0.00 0.00 59 1016.3
20260507100142 59 227 0.0 0.0 0.00 0.00 0.00 58 1016.3
20260507095711 59 250 0.0 0.0 0.00 0.00 0.00 58 1016.3
20260507095240 59 282 0.0 0.0 0.00 0.00 0.00 56 1016.3
20260507094814 60 284 0.0 0.0 0.00 0.00 0.00 54 1016.3
20260507094036 60 213 0.0 0.0 0.00 0.00 0.00 56 1016.3
20260507093537 60 173 0.0 0.0 0.00 0.00 0.00 57 1016.3
20260507093038 59 207 0.0 0.0 0.00 0.00 0.00 59 1016.3
20260507092540 58 262 0.0 0.0 0.00 0.00 0.00 59 1016.3
20260507092039 59 276 0.0 0.0 0.00 0.00 0.00 60 1016.3
20260507091638 58 236 0.0 0.0 0.00 0.00 0.00 65 1016.3
20260507091212 58 202 0.0 0.0 0.00 0.00 0.00 64 1016.3
20260507090739 57 200 0.0 0.0 0.00 0.00 0.00 65 1016.3
20260507090314 57 159 0.0 0.0 0.00 0.00 0.00 67 1016.3
20260507085538 56 89 0.0 0.0 0.00 0.00 0.00 73 1016.3
20260507085137 55 247 0.0 0.0 0.00 0.00 0.00 73 1016.3
20260507084735 55 157 0.0 0.0 0.00 0.00 0.00 73 1016.3
20260507084316 55 98 0.0 0.0 0.00 0.00 0.00 74 1016.3
20260507083540 54 198 0.0 0.0 0.00 0.00 0.00 76 1016.6
20260507083042 54 229 0.0 0.0 0.00 0.00 0.00 76 1016.3
20260507082537 54 140 0.0 0.0 0.00 0.00 0.00 78 1016.3
20260507082114 54 155 0.0 0.0 0.00 0.00 0.00 81 1016.3
20260507081641 53 88 0.0 0.0 0.00 0.00 0.00 82 1016.6
20260507081236 53 114 0.0 0.0 0.00 0.00 0.00 83 1016.3
20260507080812 52 142 0.0 0.0 0.00 0.00 0.00 83 1016.6
20260507080039 52 214 0.0 0.0 0.00 0.00 0.00 83 1016.6
20260507075540 52 290 0.0 0.0 0.00 0.00 0.00 84 1016.6
20260507075136 52 150 0.0 0.0 0.00 0.00 0.00 84 1016.6
20260507074714 51 78 0.0 0.0 0.00 0.00 0.00 86 1016.3
20260507074239 51 155 0.0 0.0 0.00 0.00 0.00 87 1016.3
20260507073812 50 36 0.0 0.0 0.00 0.00 0.00 87 1016.3
20260507073043 50 121 0.0 0.0 0.00 0.00 0.00 88 1016.3
20260507072540 49 122 0.0 1.0 0.00 0.00 0.00 89 1016.3
20260507072113 49 52 0.0 0.0 0.00 0.00 0.00 90 1016.3
20260507071642 48 55 0.0 0.0 0.00 0.00 0.00 90 1016.6
20260507071239 48 128 0.0 0.0 0.00 0.00 0.00 90 1016.6
20260507070814 48 123 0.0 0.0 0.00 0.00 0.00 91 1016.6
20260507070039 47 140 0.0 0.0 0.00 0.00 0.00 93 1016.6
20260507065538 46 141 0.0 0.0 0.00 0.00 0.00 93 1016.6
20260507065113 45 141 0.0 0.0 0.00 0.00 0.00 93 1016.6
20260507064637 45 141 0.0 0.0 0.00 0.00 0.00 93 1016.6
20260507064212 44 141 0.0 0.0 0.00 0.00 0.00 93 1016.6
20260507063813 44 141 0.0 0.0 0.00 0.00 0.00 93 1016.6
20260507063040 43 139 0.0 0.0 0.00 0.00 0.00 93 1016.6
20260507062542 43 139 0.0 0.0 0.00 0.00 0.00 93 1016.6
20260507062113 42 139 0.0 0.0 0.00 0.00 0.00 93 1016.6
20260507061711 42 139 0.0 0.0 0.00 0.00 0.00 93 1016.3
20260507061310 42 139 0.0 0.0 0.00 0.00 0.00 93 1016.3
20260507060539 41 139 0.0 0.0 0.00 0.00 0.00 93 1016.3
20260507060037 41 139 0.0 0.0 0.00 0.00 0.00 93 1016.3
20260507055614 41 139 0.0 0.0 0.00 0.00 0.00 93 1016.3
20260507055139 41 139 0.0 0.0 0.00 0.00 0.00 93 1016.3
20260507054711 40 139 0.0 0.0 0.00 0.00 0.00 93 1016.3
20260507054241 40 139 0.0 0.0 0.00 0.00 0.00 93 1016.3
20260507053811 40 139 0.0 0.0 0.00 0.00 0.00 92 1016.3
20260507053042 40 139 0.0 0.0 0.00 0.00 0.00 92 1015.9
20260507052542 40 139 0.0 0.0 0.00 0.00 0.00 92 1015.9
20260507052041 40 139 0.0 0.0 0.00 0.00 0.00 92 1015.9
20260507051540 40 139 0.0 0.0 0.00 0.00 0.00 92 1015.9
20260507051115 40 139 0.0 0.0 0.00 0.00 0.00 92 1015.9
20260507050711 40 139 0.0 0.0 0.00 0.00 0.00 92 1015.9
20260507050241 40 139 0.0 0.0 0.00 0.00 0.00 92 1015.9
20260507045812 40 139 0.0 0.0 0.00 0.00 0.00 92 1015.9
20260507045032 40 139 0.0 0.0 0.00 0.00 0.00 92 1015.9
20260507044529 40 139 0.0 0.0 0.00 0.00 0.00 92 1015.9
20260507044030 40 139 0.0 0.0 0.00 0.00 0.00 92 1015.9
20260507043533 40 125 0.0 0.0 0.00 0.00 0.00 92 1015.9
20260507043030 40 118 0.0 0.0 0.00 0.00 0.00 92 1015.9
20260507042529 40 112 0.0 0.0 0.00 0.00 0.00 92 1015.9
20260507042029 40 112 0.0 0.0 0.00 0.00 0.00 92 1015.9
20260507041532 41 112 0.0 0.0 0.00 0.00 0.00 92 1015.9
20260507041029 41 112 0.0 0.0 0.00 0.00 0.00 92 1015.9
20260507040527 41 112 0.0 0.0 0.00 0.00 0.00 92 1015.9
20260507040031 41 112 0.0 0.0 0.00 0.00 0.00 92 1015.9
20260507035528 41 112 0.0 0.0 0.00 0.00 0.00 92 1015.9
20260507035028 41 112 0.0 0.0 0.00 0.00 0.00 92 1015.9
20260507034539 41 112 0.0 0.0 0.00 0.00 0.00 92 1015.9
20260507034128 41 112 0.0 0.0 0.00 0.00 0.00 92 1015.9
20260507033639 41 112 0.0 0.0 0.00 0.00 0.00 92 1015.9
20260507033227 42 112 0.0 0.0 0.00 0.00 0.00 92 1015.9
20260507032742 42 112 0.0 0.0 0.00 0.00 0.00 92 1015.9
20260507032327 42 112 0.0 0.0 0.00 0.00 0.00 92 1015.9
20260507031527 42 112 0.0 0.0 0.00 0.00 0.00 92 1015.9
20260507031041 42 112 0.0 0.0 0.00 0.00 0.00 92 1015.9
20260507030626 42 112 0.0 0.0 0.00 0.00 0.00 92 1015.6
20260507030141 42 112 0.0 0.0 0.00 0.00 0.00 92 1015.6
20260507025739 42 112 0.0 0.0 0.00 0.00 0.00 91 1015.6
20260507025325 42 112 0.0 0.0 0.00 0.00 0.00 91 1015.6
20260507024526 42 112 0.0 0.0 0.00 0.00 0.00 91 1015.6
20260507024025 42 112 0.0 0.0 0.00 0.00 0.00 91 1015.6
20260507023527 43 112 0.0 0.0 0.00 0.00 0.00 91 1015.6
20260507023026 43 112 0.0 0.0 0.00 0.00 0.00 91 1015.6
20260507022526 43 112 0.0 0.0 0.00 0.00 0.00 91 1015.6
20260507022025 43 112 0.0 0.0 0.00 0.00 0.00 90 1015.6
20260507021526 43 112 0.0 0.0 0.00 0.00 0.00 90 1015.6
20260507021027 43 112 0.0 0.0 0.00 0.00 0.00 90 1015.6
20260507020524 43 112 0.0 0.0 0.00 0.00 0.00 90 1015.6
20260507020028 43 112 0.0 0.0 0.00 0.00 0.00 90 1015.6
20260507015524 44 112 0.0 0.0 0.00 0.00 0.00 90 1015.6
20260507015023 44 112 0.0 0.0 0.00 0.00 0.00 90 1015.6
20260507014537 44 112 0.0 0.0 0.00 0.00 0.00 90 1015.6
20260507014123 44 112 0.0 0.0 0.00 0.00 0.00 90 1015.6
20260507013639 44 112 0.0 0.0 0.00 0.00 0.00 89 1015.6
20260507013223 44 112 0.0 0.0 0.00 0.00 0.00 89 1015.6
20260507012741 44 112 0.0 0.0 0.00 0.00 0.00 89 1015.6
20260507012322 44 112 0.0 0.0 0.00 0.00 0.00 89 1015.2
20260507011523 45 112 0.0 0.0 0.00 0.00 0.00 89 1015.6
20260507011023 45 112 0.0 0.0 0.00 0.00 0.00 89 1015.2
20260507010522 45 112 0.0 0.0 0.00 0.00 0.00 88 1015.6
20260507010029 45 112 0.0 0.0 0.00 0.00 0.00 88 1015.2
20260507005539 45 112 0.0 0.0 0.00 0.00 0.00 88 1015.2
20260507005135 45 112 0.0 0.0 0.00 0.00 0.00 87 1015.6
20260507004722 45 112 0.0 0.0 0.00 0.00 0.00 87 1015.6
20260507004241 45 112 0.0 0.0 0.00 0.00 0.00 87 1015.2
20260507003823 45 112 0.0 0.0 0.00 0.00 0.00 86 1015.6
20260507003021 45 112 0.0 0.0 0.00 0.00 0.00 86 1015.6
20260507002541 46 112 0.0 0.0 0.00 0.00 0.00 86 1015.6
20260507002135 46 112 0.0 0.0 0.00 0.00 0.00 86 1015.6
20260507001720 46 112 0.0 0.0 0.00 0.00 0.00 85 1015.6
20260507001319 46 112 0.0 0.0 0.00 0.00 0.00 85 1015.6
20260507000542 46 112 0.0 0.0 0.00 0.00 0.00 85 1015.6
20260507000138 46 112 0.0 0.0 0.00 0.00 0.00 84 1015.6
20260506235736 47 112 0.0 0.0 0.00 0.00 0.00 83 1015.6
20260506235321 47 112 0.0 0.0 0.00 0.00 0.00 83 1015.6
20260506234539 47 112 0.0 0.0 0.00 0.00 0.00 83 1015.2
20260506234038 47 112 0.0 0.0 0.00 0.00 0.00 82 1015.2
20260506233618 48 112 0.0 0.0 0.00 0.00 0.00 82 1015.2
20260506233145 48 112 0.0 0.0 0.00 0.00 0.00 81 1015.2
20260506232719 48 112 0.0 0.0 0.00 0.00 0.00 81 1015.2
20260506232238 49 112 0.0 0.0 0.00 0.00 0.00 80 1015.2
20260506231818 49 112 0.0 0.0 0.00 0.00 0.00 79 1015.2
20260506231018 49 112 0.0 0.0 0.00 0.00 0.00 79 1015.2
20260506230519 49 112 0.0 0.0 0.00 0.00 0.00 78 1015.2
20260506230019 50 112 0.0 0.0 0.00 0.00 0.00 78 1015.2
20260506225535 50 112 0.0 0.0 0.00 0.00 0.00 78 1015.2
20260506225119 50 112 0.0 0.0 0.00 0.00 0.00 77 1015.2
20260506224641 50 112 0.0 0.0 0.00 0.00 0.00 77 1015.2
20260506224239 50 112 0.0 0.0 0.00 0.00 0.00 76 1015.2
20260506223817 51 112 0.0 0.0 0.00 0.00 0.00 76 1015.2
20260506223039 51 112 0.0 0.0 0.00 0.00 0.00 76 1015.2
20260506222617 51 113 0.0 0.0 0.00 0.00 0.00 76 1015.2
20260506222141 51 113 0.0 0.0 0.00 0.00 0.00 76 1015.2
20260506221739 51 329 0.0 0.0 0.00 0.00 0.00 75 1015.2
20260506221315 51 50 0.0 0.0 0.00 0.00 0.00 75 1014.9
20260506220536 52 37 0.0 0.0 0.00 0.00 0.00 75 1014.9
20260506220043 52 24 0.0 0.0 0.00 0.00 0.00 75 1014.9
20260506215637 52 265 0.0 0.0 0.00 0.00 0.00 75 1014.9
20260506215216 52 92 0.0 0.0 0.00 0.00 0.00 74 1014.9
20260506214738 52 296 0.0 0.0 0.00 0.00 0.00 74 1014.9
20260506214315 52 307 0.0 0.0 0.00 0.00 0.00 74 1015.2
20260506213538 52 49 0.0 0.0 0.00 0.00 0.00 74 1014.9
20260506213044 52 74 0.0 0.0 0.00 0.00 0.00 73 1014.9
20260506212615 52 90 0.0 0.0 0.00 0.00 0.00 73 1014.9
20260506212139 52 325 0.0 0.0 0.00 0.00 0.00 73 1014.9
20260506211717 52 41 0.0 0.0 0.00 0.00 0.00 73 1014.9
20260506211242 53 40 0.0 0.0 0.00 0.00 0.00 72 1014.9
20260506210816 53 24 0.0 0.0 0.00 0.00 0.00 71 1014.9
20260506210040 53 36 0.0 0.0 0.00 0.00 0.00 71 1014.9
20260506205537 53 24 0.0 0.0 0.00 0.00 0.00 71 1014.9
20260506205116 53 54 0.0 0.0 0.00 0.00 0.00 70 1014.9
20260506204644 53 118 0.0 0.0 0.00 0.00 0.00 70 1014.9
20260506204236 53 44 0.0 0.0 0.00 0.00 0.00 69 1014.6
20260506203812 53 44 0.0 0.0 0.00 0.00 0.00 68 1014.6